Location: Hohenfelde
(53.8441°N, 9.6220°E)
Time: 12:18:13
(UTC+00:00)

Helios 1B rocket - Pass Details

Date: 14 July 2020
Orbit: 574 x 584 km, 98.1° (Epoch: 12 August)

Event Time Altitude Azimuth Distance (km) Brightness Sun altitude
Rises 00:24:26 0° 13° (NNE) 2,815 8.0 -13.5°
Reaches altitude 10° 00:26:37 10° 11° (N) 1,909 6.6 -13.4°
Maximum altitude 00:30:43 69° 289° (WNW) 625 2.6 -13.3°
Enters shadow 00:33:25 21° 209° (SSW) 1,338 3.7 -13.2°
